When you browse on this site, cookies collect data to enhance your experience and personalize the content and advertising you see.
Visit our Privacy Policy to learn more. By continuing to use the site, you agree to this use of cookies and data.
  • In Austria
  • List of Countries
  • For 7 days
  • Water Temperature
  • Satellite Maps
  • Weather Map
  • News
  • Weather Widgets
  • user-avatar
    Login

    Hourly Weather Ashtarak

    Today, 21 November, Wednesday

    Time Temperature Precipitation Wind Pressure Humidity
    00:00 +6°C° 0 mm 1 mps 657 mmHg 66%
    01:00 +5°C° 0 mm 2 mps 656 mmHg 67%
    02:00 +5°C° 0 mm 2 mps 656 mmHg 67%
    03:00 +5°C° 0 mm 2 mps 656 mmHg 67%
    04:00 +5°C° 0 mm 2 mps 656 mmHg 68%
    05:00 +5°C° 0 mm 2 mps 655 mmHg 69%
    06:00 +5°C° 0 mm 2 mps 655 mmHg 70%
    07:00 +6°C° 0 mm 2 mps 655 mmHg 67%
    08:00 +7°C° 0 mm 2 mps 655 mmHg 64%
    09:00 +8°C° 0 mm 2 mps 655 mmHg 60%
    10:00 +9°C° 0 mm 2 mps 655 mmHg 58%
    11:00 +9°C° 0 mm 3 mps 655 mmHg 55%
    12:00 +10°C° 0 mm 3 mps 655 mmHg 52%
    13:00 +10°C° 0 mm 3 mps 654 mmHg 53%
    14:00 +10°C° 0 mm 3 mps 654 mmHg 53%
    15:00 +10°C° 0 mm 3 mps 654 mmHg 53%
    16:00 +9°C° 0.1 mm 3 mps 654 mmHg 57%
    17:00 +8°C° 0.1 mm 2 mps 654 mmHg 60%
    18:00 +7°C° 0.1 mm 2 mps 654 mmHg 64%
    19:00 +7°C° 0.1 mm 2 mps 654 mmHg 65%
    20:00 +7°C° 0.1 mm 2 mps 654 mmHg 67%
    21:00 +6°C° 0.1 mm 2 mps 654 mmHg 68%
    22:00 +6°C° 0.2 mm 2 mps 654 mmHg 69%
    23:00 +6°C° 0.2 mm 2 mps 654 mmHg 70%

    Tomorrow, 22 November, Thursday

    Time Temperature Precipitation Wind Pressure Humidity
    00:00 +6°C° 0.2 mm 2 mps 654 mmHg 71%
    01:00 +6°C° 0.2 mm 2 mps 653 mmHg 72%
    02:00 +5°C° 0.2 mm 2 mps 653 mmHg 73%
    03:00 +5°C° 0.2 mm 2 mps 653 mmHg 74%
    04:00 +5°C° 0.4 mm 2 mps 653 mmHg 75%
    05:00 +5°C° 0.4 mm 2 mps 653 mmHg 76%
    06:00 +5°C° 0.4 mm 2 mps 653 mmHg 77%
    07:00 +6°C° 0.4 mm 2 mps 653 mmHg 76%
    08:00 +6°C° 0.4 mm 2 mps 653 mmHg 75%
    09:00 +7°C° 0.4 mm 3 mps 653 mmHg 74%
    10:00 +7°C° 0.3 mm 3 mps 653 mmHg 72%
    11:00 +8°C° 0.3 mm 3 mps 653 mmHg 70%
    12:00 +9°C° 0.3 mm 3 mps 653 mmHg 67%
    13:00 +9°C° 0.3 mm 3 mps 653 mmHg 67%
    14:00 +9°C° 0.3 mm 3 mps 652 mmHg 67%
    15:00 +9°C° 0.3 mm 3 mps 652 mmHg 67%
    16:00 +8°C° 0.3 mm 3 mps 652 mmHg 70%
    17:00 +7°C° 0.3 mm 2 mps 652 mmHg 73%
    18:00 +7°C° 0.3 mm 2 mps 653 mmHg 75%
    19:00 +7°C° 0.5 mm 2 mps 653 mmHg 77%
    20:00 +7°C° 0.5 mm 2 mps 653 mmHg 78%
    21:00 +6°C° 0.5 mm 2 mps 653 mmHg 79%
    22:00 +6°C° 0.4 mm 2 mps 653 mmHg 80%
    23:00 +7°C° 0.4 mm 1 mps 653 mmHg 80%

    Day after tomorrow, 23 November, Friday

    Time Temperature Precipitation Wind Pressure Humidity
    00:00 +7°C° 0.4 mm 1 mps 653 mmHg 81%
    01:00 +7°C° 0.3 mm 1 mps 653 mmHg 81%
    02:00 +7°C° 0.3 mm 1 mps 653 mmHg 81%
    03:00 +7°C° 0.3 mm 1 mps 654 mmHg 82%
    04:00 +6°C° 0.3 mm 1 mps 654 mmHg 82%
    05:00 +6°C° 0.3 mm 1 mps 654 mmHg 82%
    06:00 +6°C° 0.3 mm 1 mps 654 mmHg 82%
    07:00 +7°C° 0.2 mm 1 mps 654 mmHg 79%
    08:00 +7°C° 0.2 mm 1 mps 655 mmHg 76%
    09:00 +7°C° 0.2 mm 2 mps 655 mmHg 73%
    10:00 +8°C° 0.2 mm 2 mps 655 mmHg 71%
    11:00 +8°C° 0.2 mm 2 mps 655 mmHg 69%
    12:00 +9°C° 0.2 mm 2 mps 655 mmHg 66%
    13:00 +9°C° 0.1 mm 2 mps 655 mmHg 65%
    14:00 +9°C° 0.1 mm 2 mps 655 mmHg 64%
    15:00 +9°C° 0.1 mm 2 mps 655 mmHg 62%
    16:00 +8°C° 0.1 mm 2 mps 655 mmHg 65%
    17:00 +8°C° 0.1 mm 1 mps 656 mmHg 68%
    18:00 +7°C° 0.1 mm 1 mps 656 mmHg 71%
    19:00 +7°C° 0.1 mm 1 mps 656 mmHg 71%
    20:00 +7°C° 0.1 mm 1 mps 657 mmHg 72%
    21:00 +6°C° 0.1 mm 1 mps 657 mmHg 72%
    22:00 +6°C° 0 mm 1 mps 658 mmHg 74%
    23:00 +6°C° 0 mm 1 mps 658 mmHg 75%

    24 November, Saturday

    Time Temperature Precipitation Wind Pressure Humidity
    00:00 +5°C° 0 mm 1 mps 658 mmHg 77%
    01:00 +5°C° 0 mm 1 mps 659 mmHg 78%
    02:00 +5°C° 0 mm 1 mps 659 mmHg 79%
    03:00 +4°C° 0 mm 2 mps 659 mmHg 79%
    04:00 +4°C° 0 mm 2 mps 659 mmHg 80%
    05:00 +3°C° 0 mm 2 mps 660 mmHg 81%
    06:00 +3°C° 0 mm 2 mps 660 mmHg 82%
    07:00 +4°C° 0 mm 2 mps 660 mmHg 79%
    08:00 +5°C° 0 mm 2 mps 661 mmHg 75%
    09:00 +5°C° 0 mm 2 mps 662 mmHg 72%
    10:00 +6°C° 0 mm 2 mps 662 mmHg 69%
    11:00 +7°C° 0 mm 2 mps 662 mmHg 66%
    12:00 +7°C° 0 mm 2 mps 662 mmHg 63%
    13:00 +8°C° 0 mm 2 mps 662 mmHg 63%
    14:00 +8°C° 0 mm 2 mps 662 mmHg 63%
    15:00 +8°C° 0 mm 2 mps 662 mmHg 62%
    16:00 +7°C° 0.1 mm 2 mps 662 mmHg 66%
    17:00 +6°C° 0.1 mm 2 mps 662 mmHg 69%
    18:00 +5°C° 0.1 mm 2 mps 662 mmHg 73%
    19:00 +5°C° 0 mm 2 mps 663 mmHg 74%
    20:00 +4°C° 0 mm 2 mps 663 mmHg 75%
    21:00 +4°C° 0 mm 2 mps 663 mmHg 77%
    22:00 +4°C° 0 mm 2 mps 663 mmHg 77%
    23:00 +4°C° 0 mm 1 mps 662 mmHg 77%

    25 November, Sunday

    Time Temperature Precipitation Wind Pressure Humidity
    00:00 +4°C° 0 mm 1 mps 662 mmHg 78%
    01:00 +4°C° 0 mm 1 mps 662 mmHg 78%
    02:00 +4°C° 0 mm 1 mps 661 mmHg 79%
    03:00 +3°C° 0 mm 1 mps 661 mmHg 79%
    04:00 +3°C° 0 mm 1 mps 660 mmHg 79%
    05:00 +3°C° 0 mm 1 mps 660 mmHg 79%
    06:00 +3°C° 0 mm 1 mps 660 mmHg 80%
    07:00 +4°C° 0 mm 1 mps 660 mmHg 75%
    08:00 +5°C° 0 mm 1 mps 659 mmHg 71%
    09:00 +6°C° 0 mm 1 mps 659 mmHg 67%
    10:00 +7°C° 0 mm 1 mps 659 mmHg 64%
    11:00 +8°C° 0 mm 1 mps 658 mmHg 61%
    12:00 +8°C° 0 mm 1 mps 657 mmHg 59%
    13:00 +9°C° 0 mm 1 mps 657 mmHg 58%
    14:00 +9°C° 0 mm 1 mps 656 mmHg 57%
    15:00 +9°C° 0 mm 1 mps 656 mmHg 57%
    16:00 +8°C° 0 mm 1 mps 656 mmHg 60%
    17:00 +6°C° 0 mm 1 mps 655 mmHg 63%
    18:00 +5°C° 0 mm 1 mps 655 mmHg 66%
    19:00 +5°C° 0 mm 1 mps 655 mmHg 66%
    20:00 +5°C° 0 mm 1 mps 655 mmHg 65%
    21:00 +3°C° 0 mm 0 mps 655 mmHg 65%
    22:00 +4°C° 0 mm 1 mps 655 mmHg 65%
    23:00 +4°C° 0 mm 1 mps 655 mmHg 65%

    26 November, Monday

    Time Temperature Precipitation Wind Pressure Humidity
    00:00 +4°C° 0 mm 1 mps 654 mmHg 64%
    01:00 +4°C° 0 mm 1 mps 654 mmHg 65%
    02:00 +4°C° 0 mm 1 mps 654 mmHg 65%
    03:00 +4°C° 0 mm 1 mps 654 mmHg 66%
    04:00 +4°C° 0.1 mm 1 mps 654 mmHg 67%
    05:00 +4°C° 0.1 mm 1 mps 655 mmHg 68%
    06:00 +4°C° 0.1 mm 1 mps 655 mmHg 69%
    07:00 +5°C° 0.1 mm 1 mps 655 mmHg 68%
    08:00 +5°C° 0.1 mm 1 mps 655 mmHg 66%
    09:00 +6°C° 0.1 mm 1 mps 656 mmHg 64%
    10:00 +7°C° 0.1 mm 1 mps 655 mmHg 63%
    11:00 +7°C° 0.1 mm 2 mps 655 mmHg 61%
    12:00 +7°C° 0.1 mm 2 mps 655 mmHg 59%
    13:00 +7°C° 0 mm 2 mps 655 mmHg 59%
    14:00 +7°C° 0 mm 2 mps 655 mmHg 58%
    15:00 +7°C° 0 mm 2 mps 654 mmHg 58%
    16:00 +6°C° 0 mm 2 mps 655 mmHg 62%
    17:00 +5°C° 0 mm 2 mps 655 mmHg 65%
    18:00 +4°C° 0 mm 2 mps 655 mmHg 69%
    19:00 +4°C° 0 mm 2 mps 655 mmHg 69%
    20:00 +3°C° 0 mm 2 mps 656 mmHg 70%
    21:00 +3°C° 0 mm 2 mps 656 mmHg 71%
    22:00 +3°C° 0 mm 2 mps 656 mmHg 71%
    23:00 +3°C° 0 mm 2 mps 656 mmHg 72%
    Show more